Weather History for KNTU - January, 2013

Change the Weather History Date:

Monday, January 14, 2013

  Actual Average Record
Temperature  
Mean Temperature 58 °F -  
Max Temperature 69 °F 46 °F 73 °F (2007)
Min Temperature 48 °F 29 °F 23 °F (1997)
Degree Days  
Heating Degree Days 6    
Growing Degree Days 8 (Base 50)    
Moisture  
Dew Point 56 °F    
Average Humidity 88    
Maximum Humidity 100    
Minimum Humidity 68    
Precipitation  
Precipitation 0.00 in - - ()
Sea Level Pressure  
Sea Level Pressure 30.13 in    
Wind  
Wind Speed 9 mph (WSW)    
Max Wind Speed 17 mph    
Max Gust Speed 24 mph    
Visibility 10 miles    
Events Rain    
Averages and records for this station are not official NWS values.
T = Trace of Precipitation, MM = Missing Value Source: NWS Daily Summary

Daily Weather History Graph

Daily Weather History Graph

Search for Another Location

Airport or City:

Trip Planner

Search our weather history database for the weather conditions in past years. The results will help you decide how hot, cold, wet, or windy it might be!

Date:

Astronomy

Jan. 14, 2013 Rise Set
Actual Time 7:16 AM EST 5:10 PM EST
Civil Twilight 6:47 AM EST 5:39 PM EST
Nautical Twilight 6:16 AM EST 6:10 PM EST
Astronomical Twilight 5:44 AM EST 6:42 PM EST
Moon 8:54 AM EST (1/14) 8:46 PM EST (1/14)
Length of Visible Light 10h 51m
Length of Day
9h 54m
Waxing Crescent, 11% of the Moon is Illuminated
Jan 14
Waxing Crescent
Jan 18
First Quarter
Jan 26
Full
Feb 3
Last Quarter
Feb 10
New

Hourly Weather History & Observations

Time (EST) Temp. Dew Point Humidity Pressure Visibility Wind Dir Wind Speed Gust Speed Precip Events Conditions
12:56 AM 60.1 °F 57.9 °F 93% 30.09 in 10.0 mi SSW 8.1 mph - N/A   Partly Cloudy
1:56 AM 59.0 °F 57.9 °F 96% 30.10 in 10.0 mi SSW 6.9 mph - N/A   Scattered Clouds
2:56 AM 59.0 °F 57.0 °F 93% 30.12 in 10.0 mi SW 8.1 mph - N/A   Partly Cloudy
3:56 AM 57.9 °F 57.0 °F 97% 30.11 in 10.0 mi SW 9.2 mph - N/A   Scattered Clouds
4:56 AM 57.0 °F 55.9 °F 96% 30.10 in 9.0 mi SW 8.1 mph - N/A   Partly Cloudy
5:56 AM 59.0 °F 57.0 °F 93% 30.10 in 10.0 mi SW 10.4 mph - N/A   Partly Cloudy
6:56 AM 59.0 °F 57.0 °F 93% 30.11 in 10.0 mi SW 10.4 mph - N/A   Scattered Clouds
7:56 AM 60.1 °F 57.0 °F 90% 30.12 in 10.0 mi SW 13.8 mph - N/A   Mostly Cloudy
8:56 AM 62.1 °F 57.9 °F 86% 30.14 in 10.0 mi SW 13.8 mph - N/A   Mostly Cloudy
9:56 AM 66.0 °F 59.0 °F 78% 30.15 in 10.0 mi SW 15.0 mph - N/A   Mostly Cloudy
10:56 AM 64.9 °F 57.9 °F 78% 30.13 in 10.0 mi WSW 13.8 mph - N/A   Mostly Cloudy
11:08 AM 66.2 °F 59.0 °F 78% 30.12 in 10.0 mi WSW 12.7 mph - 0.00 in Rain Light Rain
11:18 AM 66.2 °F 57.2 °F 73% 30.12 in 10.0 mi WSW 12.7 mph - 0.00 in   Mostly Cloudy
11:56 AM 66.9 °F 59.0 °F 76% 30.12 in 10.0 mi WSW 9.2 mph - 0.00 in   Mostly Cloudy
12:56 PM 68.0 °F 59.0 °F 73% 30.10 in 10.0 mi SW 8.1 mph - N/A   Mostly Cloudy
1:56 PM 68.0 °F 59.0 °F 73% 30.11 in 10.0 mi SW 5.8 mph - 0.00 in Rain Light Rain
2:09 PM 69.8 °F 59.0 °F 68% 30.11 in 10.0 mi WSW 4.6 mph - 0.00 in   Overcast
2:56 PM 69.1 °F 59.0 °F 70% 30.13 in 10.0 mi NW 3.5 mph - 0.00 in   Overcast
3:56 PM 64.0 °F 60.1 °F 87% 30.15 in 10.0 mi North 5.8 mph - 0.00 in Rain Light Rain
4:39 PM 60.8 °F 59.0 °F 94% 30.14 in 10.0 mi East 6.9 mph - 0.00 in   Overcast
4:56 PM 57.9 °F 55.9 °F 93% 30.14 in 9.0 mi ESE 10.4 mph - 0.00 in   Overcast
5:56 PM 57.9 °F 55.9 °F 93% 30.14 in 10.0 mi ESE 9.2 mph - N/A   Mostly Cloudy
6:13 PM 59.0 °F 55.4 °F 88% 30.14 in 10.0 mi East 6.9 mph - 0.00 in Rain Light Rain
6:56 PM 59.0 °F 57.0 °F 93% 30.16 in 8.0 mi North 5.8 mph - 0.00 in Rain Light Rain
7:50 PM 55.4 °F 53.6 °F 94% 30.15 in 7.0 mi North 8.1 mph - 0.00 in   Overcast
7:56 PM 55.9 °F 55.0 °F 97% 30.15 in 7.0 mi North 8.1 mph - 0.00 in   Overcast
8:13 PM 53.6 °F 53.6 °F 100% 30.14 in 7.0 mi NE 9.2 mph - N/A   Overcast
8:56 PM 52.0 °F 51.1 °F 97% 30.16 in 10.0 mi NNE 10.4 mph - N/A   Overcast
9:56 PM 52.0 °F 50.0 °F 93% 30.16 in 10.0 mi North 11.5 mph - N/A   Overcast
10:56 PM 48.9 °F 48.0 °F 97% 30.19 in 10.0 mi North 17.3 mph 24.2 mph N/A   Overcast
11:56 PM 48.0 °F 46.9 °F 96% 30.20 in 10.0 mi North 13.8 mph - N/A   Overcast